Wind_Speed
29 29 28 28 28 28 28 28 27 27 27 27 27 25 24 23 22 22 23 24 26 26 27 27 28 28 28 28 27 27 27 27 27 27 28 29 29 30 31 31 32 32 33 34 35 37 38 39 39 40 42 43 43 43 44 46 47 47 47 47 44 38 32 27 24 21 21 23 25 27 30 34 37 39 41 43 45 46 47 48 47 47 46 45 45
30 29 29 29 29 29 28 28 28 28 27 27 26 25 24 24 24 25 25 26 28 29 29 30 30 31 31 30 29 28 28 29 28 29 30 30 31 32 33 34 34 34 34 35 37 38 39 40 41 42 43 44 44 43 44 47 48 47 47 48 46 41 35 31 27 23 21 23 25 28 30 34 37 39 42 44 47 48 49 49 50 49 50 50 49
31 30 30 30 30 29 29 29 28 28 28 27 27 26 26 26 27 28 28 29 30 31 31 31 32 32 32 32 31 30 30 30 31 31 31 32 33 33 35 36 36 36 36 37 38 39 41 42 43 44 45 45 45 44 45 47 48 48 47 48 48 43 37 34 31 27 24 24 26 28 31 34 38 41 43 46 49 51 52 52 52 52 53 54 54
32 33 33 32 31 31 31 31 30 30 30 29 29 29 29 29 30 31 31 31 32 32 32 33 33 33 33 32 32 31 31 32 33 33 33 34 34 35 36 38 39 39 39 39 40 41 42 43 45 45 46 46 46 46 47 48 49 48 48 48 48 44 39 36 34 30 27 25 25 27 31 34 38 41 44 47 50 53 54 54 54 55 56 57 58
35 35 35 34 34 35 35 34 33 33 32 32 32 32 32 32 32 33 33 33 34 34 34 34 34 34 33 33 33 32 32 33 35 35 35 35 37 37 38 39 40 41 41 42 42 43 44 45 46 47 47 47 48 48 48 49 49 49 49 48 48 46 40 36 35 33 30 28 27 27 30 33 37 41 44 48 52 55 56 57 57 57 58 60 62
37 38 37 37 38 38 38 37 36 35 35 35 35 35 35 34 34 35 35 36 36 35 36 36 35 35 35 35 35 34 33 35 37 37 37 37 39 40 40 41 42 43 44 44 45 45 46 46 47 47 48 48 49 49 49 50 50 50 50 49 48 47 42 37 35 35 34 32 31 30 30 33 36 40 44 47 52 56 58 59 60 60 61 63 65
40 41 40 40 41 41 41 39 38 37 37 38 38 38 37 37 37 37 37 38 38 38 38 37 37 37 36 36 36 36 35 37 39 40 40 40 41 42 42 43 44 45 46 47 47 47 48 48 48 48 48 49 50 51 51 51 51 51 50 50 49 47 44 39 36 35 36 36 35 33 32 33 36 40 44 48 52 56 59 60 61 62 64 67 68
42 43 43 43 44 44 43 41 40 39 40 40 40 40 40 39 39 39 39 40 40 40 40 39 39 38 38 38 38 38 38 39 41 42 42 42 43 44 45 45 46 47 48 49 50 49 49 50 49 49 50 50 51 52 53 53 52 51 50 50 50 48 45 41 37 36 38 39 38 36 35 35 37 41 45 49 53 57 60 61 63 64 66 69 71
42 43 43 45 46 45 43 42 42 41 41 42 42 42 41 41 41 40 40 40 41 41 41 40 40 40 40 40 40 40 41 42 43 44 44 45 45 46 47 48 48 49 50 51 52 52 51 51 51 51 51 52 52 53 54 54 53 52 51 51 50 49 46 41 38 37 38 40 40 38 37 37 39 42 47 50 54 58 61 62 64 65 68 71 72
42 43 44 46 46 44 43 43 43 42 42 42 42 43 43 43 43 42 42 42 42 42 42 42 42 42 42 42 42 43 44 45 45 46 46 47 47 48 49 50 51 51 52 53 54 54 53 53 53 53 53 53 54 54 55 55 53 52 51 51 51 50 47 42 38 37 38 41 41 39 38 38 40 43 48 52 55 59 61 63 65 67 69 72 74
43 44 45 46 45 44 44 44 44 44 43 43 43 43 44 44 44 44 44 44 44 44 44 44 44 44 44 44 45 46 47 47 48 48 49 49 50 50 51 52 53 54 54 55 56 56 56 55 55 55 55 55 56 56 56 56 54 52 52 51 51 51 48 42 39 38 39 41 42 40 39 40 42 45 49 53 57 59 62 64 66 68 70 73 75
46 47 48 47 46 46 46 46 46 46 45 45 45 45 45 46 46 46 47 46 46 46 47 47 48 47 47 47 47 48 49 50 51 51 51 51 52 52 53 54 55 55 56 57 57 58 58 58 57 57 58 58 58 58 58 57 55 54 52 51 51 52 49 43 40 39 40 42 43 42 41 41 43 46 50 54 58 60 62 64 66 69 72 74 76
50 50 50 50 50 50 49 49 49 49 49 48 47 47 47 48 49 49 49 49 49 50 50 50 51 50 50 50 50 51 52 53 54 53 53 53 53 54 55 56 56 58 59 59 59 60 61 61 60 60 60 60 60 61 60 59 57 55 53 52 51 52 49 44 41 40 40 42 44 45 44 43 45 48 51 55 59 61 63 65 67 69 72 74 77
52 53 53 53 53 53 52 52 52 52 52 51 51 51 51 52 52 52 52 52 52 52 53 53 53 53 53 53 53 53 54 56 56 56 55 55 55 56 57 58 59 60 61 61 62 63 63 64 64 63 63 63 63 62 62 61 58 57 54 52 52 51 48 44 41 41 41 42 44 46 46 46 47 50 53 56 60 62 63 65 67 69 73 75 78
55 56 56 56 56 55 54 54 55 55 54 54 54 54 54 54 55 55 55 54 55 55 55 55 56 56 55 55 55 55 56 58 59 59 58 58 58 59 60 61 62 63 64 64 65 65 66 67 67 66 66 66 65 65 64 62 60 58 55 53 52 50 46 44 42 41 42 43 44 47 48 48 50 52 54 58 61 63 64 66 68 70 73 76 79
56 57 57 58 58 58 57 57 57 58 58 57 57 58 58 58 58 58 57 57 58 58 59 59 59 58 58 58 58 59 60 60 61 62 62 62 62 63 63 64 66 67 67 67 68 69 69 69 69 68 68 67 67 67 64 62 60 58 55 53 51 46 44 43 42 42 43 44 45 48 49 51 53 54 56 59 62 64 65 67 69 71 73 76 79
51 53 54 56 56 57 57 57 58 59 59 59 60 62 62 62 61 61 61 61 61 62 62 63 62 62 62 62 62 63 63 63 64 65 66 66 66 66 66 67 68 68 69 69 70 70 71 71 70 70 69 68 68 67 64 60 58 57 55 52 47 42 40 41 41 42 43 44 46 49 52 55 56 56 58 61 63 64 66 67 69 72 74 76 79
45 47 49 49 50 51 52 52 53 54 55 56 59 60 61 61 61 61 61 62 63 64 64 64 64 64 64 64 65 65 65 66 66 67 68 68 68 68 67 68 68 69 69 70 70 71 71 70 70 70 69 68 67 65 61 57 55 55 53 47 41 37 37 39 41 42 44 45 48 51 54 57 58 58 60 63 65 66 67 68 69 72 74 76 79
40 42 43 43 44 45 46 46 47 48 49 51 53 54 54 55 55 55 56 57 58 59 60 60 61 61 61 62 62 62 62 63 64 65 65 66 65 64 64 65 66 66 67 68 69 69 68 67 68 67 66 64 63 60 56 52 51 51 47 39 34 33 35 37 41 43 44 45 49 52 56 58 59 60 61 64 67 67 67 68 70 72 74 76 79
37 39 40 41 42 43 42 42 43 45 46 47 48 48 49 50 51 51 51 52 52 53 54 54 55 55 56 56 56 56 56 57 58 60 61 60 60 60 59 59 60 61 62 63 63 63 62 61 62 62 60 58 56 53 48 47 46 43 37 32 31 32 35 37 41 44 45 46 50 54 57 59 60 61 62 65 69 70 69 69 71 73 74 76 79
38 39 40 41 42 43 42 41 42 43 45 46 46 46 47 47 48 49 49 49 49 50 51 51 51 52 52 53 53 53 54 54 54 56 57 58 58 57 55 55 56 57 57 56 57 57 55 53 54 56 55 51 48 45 42 41 38 33 30 30 31 34 37 38 42 45 46 47 51 55 57 59 60 62 64 68 71 71 70 71 72 73 75 77 79
40 40 40 41 42 43 43 42 42 43 44 46 46 47 47 47 47 48 49 49 48 49 49 49 50 50 51 51 52 53 53 53 52 54 56 57 57 57 56 55 54 54 54 53 53 53 50 47 48 49 48 45 41 38 37 35 32 29 31 33 35 38 40 41 43 45 46 49 54 57 58 59 61 63 66 70 72 73 72 72 73 75 76 77 80
42 42 42 42 43 43 44 44 44 44 45 46 47 47 47 48 48 48 49 49 49 49 49 49 49 50 50 50 51 51 52 53 53 54 56 56 57 58 57 55 55 54 52 51 49 47 44 44 44 43 41 38 34 32 32 32 31 33 35 36 38 41 42 42 44 45 46 51 56 57 58 60 61 64 67 71 73 73 73 73 75 76 77 78 81
45 45 45 45 45 45 45 46 46 46 46 47 48 48 48 49 49 50 50 50 50 50 50 50 50 50 50 50 51 51 51 52 52 54 55 55 55 56 56 56 56 54 52 50 48 44 40 38 39 40 36 30 26 27 31 33 34 35 36 36 38 40 42 44 46 46 48 53 56 56 58 61 62 65 69 71 73 74 74 75 76 76 78 80 83
48 48 48 48 48 47 47 47 48 48 48 49 50 50 50 50 51 52 52 52 52 52 53 52 52 52 51 50 50 50 49 50 51 52 54 55 55 54 54 55 55 54 52 50 44 39 35 34 35 35 29 22 22 27 33 36 37 37 38 39 40 40 41 44 46 47 49 52 54 55 57 60 63 67 70 72 74 75 75 75 75 77 79 81 84
51 51 51 51 51 50 50 50 50 50 50 50 51 52 52 51 52 53 54 55 55 55 55 55 54 54 53 52 51 50 49 51 52 52 54 56 56 55 54 54 53 52 50 46 39 33 30 30 31 31 28 25 27 33 37 40 41 41 41 42 43 42 39 40 43 45 48 51 54 55 57 60 65 68 70 72 74 75 76 75 75 78 80 82 84
54 54 54 54 54 54 53 53 53 53 53 52 52 53 53 53 53 54 55 56 57 57 58 58 58 57 56 55 53 52 51 52 53 53 54 55 55 55 55 55 53 51 46 39 32 27 27 33 38 41 43 44 46 48 48 48 47 45 45 46 46 43 40 39 41 45 49 53 55 55 58 62 66 69 70 72 74 75 75 75 76 79 81 83 86
57 57 57 57 56 56 56 56 56 56 56 56 55 55 55 55 55 55 56 57 58 58 60 61 61 60 59 57 55 54 52 52 53 52 52 53 54 54 54 55 55 50 40 32 31 36 45 54 59 61 62 62 61 59 57 55 52 48 48 49 48 46 44 42 41 44 50 54 55 57 60 64 66 68 71 73 74 74 74 74 77 80 82 84 87
60 60 60 60 59 59 59 59 59 59 60 60 59 58 57 58 58 58 58 58 59 60 61 62 63 63 62 59 57 55 53 53 54 51 49 51 53 54 54 54 54 50 43 40 45 53 59 64 67 68 68 67 65 62 61 60 58 52 49 49 49 49 49 46 45 47 51 53 55 58 61 64 67 69 71 73 73 73 73 75 78 81 83 86 88
63 63 63 62 62 62 62 62 62 63 63 64 63 62 62 61 62 62 61 61 62 63 63 63 64 64 63 61 59 56 53 53 54 52 50 51 53 54 54 53 52 50 48 47 46 48 52 57 62 67 69 68 65 63 61 61 60 56 53 49 46 47 50 50 50 52 54 54 56 59 62 65 67 69 71 72 72 72 74 77 79 81 84 87 88
65 65 65 65 65 65 65 65 66 66 66 66 66 66 66 65 65 65 65 65 65 66 66 66 66 65 65 63 60 56 53 53 53 53 53 53 53 54 54 53 50 49 48 44 39 38 45 51 56 62 67 67 64 62 62 62 61 61 59 54 48 48 51 52 52 54 55 55 57 61 64 66 68 69 72 72 72 74 77 79 81 83 86 88 89
68 68 68 68 68 69 69 69 69 70 70 70 69 69 69 68 68 68 68 68 69 69 69 68 68 67 66 64 59 54 52 53 54 55 56 56 55 54 53 53 51 47 45 43 37 35 43 52 57 61 65 67 66 65 63 59 56 56 57 54 51 50 52 52 53 54 54 55 60 64 66 67 68 70 72 73 74 78 80 81 82 84 86 88 89
70 70 71 71 71 72 72 73 73 73 73 73 72 72 71 71 70 71 71 72 72 72 71 70 70 69 68 65 60 54 53 53 54 55 56 56 56 54 53 53 52 47 45 44 39 35 40 51 59 62 61 62 65 66 61 56 55 55 53 50 49 50 51 52 52 53 54 58 62 66 67 68 69 71 73 75 78 81 82 83 84 85 87 89 89
73 73 74 74 74 75 75 76 76 77 77 76 76 75 75 74 73 73 74 75 75 75 73 72 71 70 68 66 62 57 54 53 53 53 54 54 53 51 51 52 49 44 43 44 41 38 39 46 52 56 55 55 59 62 61 61 63 62 56 52 51 51 52 53 54 55 57 60 63 66 68 69 71 73 76 78 81 83 84 84 85 86 87 88 89
77 77 77 77 78 78 78 78 79 79 79 79 79 78 77 75 74 74 74 75 75 75 74 73 71 70 69 66 62 57 54 52 52 52 52 52 50 48 46 45 43 42 44 45 43 39 40 42 44 46 48 50 53 56 57 59 61 59 55 54 55 54 54 55 56 57 59 61 63 66 69 70 72 75 78 80 82 83 84 84 84 86 87 88 88
80 81 80 79 77 77 77 78 79 79 80 80 80 78 75 73 71 70 69 69 69 70 71 72 72 71 69 65 60 57 53 52 51 51 50 49 47 43 40 41 44 46 49 49 45 39 38 42 45 44 46 51 54 54 55 56 57 57 56 57 57 57 57 57 58 59 60 62 66 69 70 72 74 77 79 81 82 83 82 82 84 86 87 87 89
79 79 79 75 72 71 72 73 74 76 77 77 75 73 70 68 67 67 66 66 65 66 67 69 71 72 69 64 59 55 52 50 50 50 49 45 41 37 37 39 44 49 53 54 49 40 38 43 46 46 47 51 53 55 58 57 57 57 58 59 58 57 58 61 61 61 63 65 69 72 72 73 76 78 80 82 82 81 80 81 84 86 87 88 89
76 77 76 72 68 66 65 65 66 68 69 68 67 65 65 65 67 67 67 66 65 65 67 69 70 72 70 65 59 54 49 47 47 48 46 41 37 36 37 34 34 39 47 50 48 44 41 41 44 47 49 51 54 59 60 57 54 53 56 58 57 57 60 63 63 63 65 68 71 73 74 75 77 79 80 81 80 79 80 82 84 86 87 89 89
74 74 73 71 69 65 62 59 58 59 60 60 61 62 64 67 68 68 66 65 66 68 71 71 70 69 68 64 59 53 48 44 45 46 44 38 34 37 37 30 26 29 34 37 38 40 40 40 44 49 53 54 57 60 60 56 53 52 52 53 56 58 60 61 62 64 67 70 72 74 76 76 78 79 79 78 78 78 80 82 84 86 88 88 89
75 73 72 70 68 65 63 60 58 57 58 59 62 65 68 70 71 69 65 64 65 67 70 70 68 66 62 59 57 53 47 42 43 44 41 36 35 37 35 28 23 23 25 27 29 32 34 37 41 44 48 51 53 57 60 57 52 51 53 55 57 58 59 61 63 66 69 71 73 75 76 76 76 76 76 76 77 78 81 83 85 86 87 88 88
75 74 72 70 67 66 65 64 63 62 63 65 67 68 70 71 71 68 64 63 63 64 65 64 62 59 56 54 55 53 47 42 42 42 39 38 39 39 34 26 20 16 15 19 25 27 28 31 35 39 46 50 51 53 58 58 53 54 57 59 59 59 61 63 65 67 68 71 73 73 74 74 73 72 73 75 77 79 81 83 85 86 86 87 88
73 72 72 71 69 68 68 67 66 67 68 68 69 69 68 68 67 65 63 63 64 64 62 59 56 53 52 51 52 52 47 43 42 42 41 41 43 41 35 28 22 16 13 17 22 24 25 31 41 50 55 54 52 52 55 56 56 57 59 60 60 61 63 64 66 67 69 71 71 71 70 70 70 70 73 76 78 80 82 84 85 86 86 86 86
71 71 71 72 72 71 71 70 70 70 71 71 71 71 70 68 67 66 66 66 65 64 61 58 55 52 51 50 51 50 48 44 43 43 43 44 44 44 41 34 27 23 24 26 30 34 40 46 53 58 57 53 51 53 53 55 57 60 60 60 61 62 63 65 67 70 72 72 71 70 69 69 70 72 75 78 80 81 83 84 85 85 85 85 86
74 73 73 72 73 73 73 73 73 73 74 75 76 76 75 74 72 70 69 67 65 64 62 60 58 56 54 52 51 50 49 46 44 45 47 49 48 47 46 41 34 32 36 41 46 54 62 61 56 52 50 48 51 54 56 58 60 61 60 61 63 64 65 68 70 72 72 71 70 69 69 70 72 75 78 80 81 82 84 84 84 83 84 85 87
78 78 77 76 75 75 75 75 76 77 78 80 81 81 80 78 76 73 70 68 67 65 64 63 61 61 58 55 53 52 51 49 46 47 50 54 54 51 49 47 43 41 43 48 54 63 68 64 57 54 54 56 58 62 64 64 62 60 60 62 65 66 68 70 71 71 70 70 69 70 71 72 75 78 80 81 82 82 82 82 82 83 84 85 85
84 84 83 83 82 81 80 79 79 80 81 82 82 82 81 80 77 74 72 70 68 67 67 67 65 64 62 59 56 55 54 52 50 49 51 55 58 57 55 54 53 52 51 52 54 57 60 60 60 61 63 64 66 68 69 68 66 65 65 67 69 71 72 72 72 71 70 71 71 73 74 76 78 79 80 81 82 81 81 82 83 84 84 83 81
87 87 86 87 87 86 85 84 83 82 82 83 83 83 82 80 77 74 72 71 69 70 71 72 71 69 66 62 58 56 55 53 51 50 52 56 60 62 63 63 62 61 60 59 59 59 61 63 65 66 67 68 69 71 72 72 71 71 72 73 74 74 74 74 73 73 73 74 75 76 77 78 79 80 81 81 81 82 82 83 83 82 80 80 79
89 88 87 87 87 86 86 85 85 85 85 86 86 85 82 79 77 74 72 72 73 74 77 77 75 73 69 65 61 59 56 52 49 49 51 55 60 65 69 71 73 73 72 71 70 69 67 66 67 69 71 71 71 72 72 73 73 74 74 74 74 74 74 75 75 75 75 76 77 78 79 80 80 81 82 82 82 82 82 81 80 79 79 80 81
91 89 87 86 85 85 85 85 86 87 87 87 86 83 81 78 77 76 75 76 78 79 80 80 77 74 70 67 64 62 60 57 54 52 53 55 59 63 69 74 78 81 82 82 82 80 76 71 68 67 68 69 70 71 73 73 74 74 74 73 74 74 75 76 76 76 78 79 80 81 82 82 82 83 83 82 81 80 79 78 78 79 80 82 82
93 91 88 85 85 85 86 87 88 88 88 86 84 82 81 80 80 81 81 81 81 81 81 81 79 75 70 66 65 63 62 62 62 60 59 58 60 63 67 71 77 82 86 87 86 85 83 79 73 69 68 69 70 71 72 72 73 73 74 74 75 76 78 78 79 80 81 82 82 83 83 83 82 82 81 80 79 79 78 79 80 81 82 82 82
95 93 91 89 88 87 87 88 88 89 88 86 84 83 83 83 84 84 83 82 82 82 83 83 82 78 73 68 66 64 62 62 63 64 63 62 62 63 66 69 72 78 84 87 87 86 85 84 80 77 74 73 73 73 73 73 73 73 74 75 77 78 79 80 81 82 82 82 83 83 82 82 81 80 80 80 80 80 80 81 82 82 82 82 83
Wind_Direction
240 242 243 244 244 245 247 248 248 249 251 255 259 263 265 268 271 274 277 279 281 283 283 284 285 288 290 294 297 299 300 302 305 307 309 314 316 318 318 319 320 322 323 324 324 325 327 328 329 330 331 333 335 337 340 343 344 346 348 349 347 339 332 334 337 336 339 343 349 354 356 356 356 356 357 358 360 0 2 3 4 3 1 358 353
239 241 242 243 243 245 246 247 248 249 251 254 257 260 264 268 271 274 276 279 281 282 283 284 286 288 290 293 296 297 298 299 301 304 308 311 314 316 316 316 317 319 320 321 322 323 326 327 327 328 329 331 334 335 337 340 341 343 345 346 346 340 332 330 333 334 335 339 343 348 351 352 352 352 354 355 356 357 359 1 2 2 1 359 355
240 241 242 242 242 243 245 246 248 250 252 255 258 261 264 267 271 273 275 277 279 280 282 283 285 287 290 292 294 295 295 296 299 302 306 309 311 313 313 314 315 316 318 319 320 322 324 325 326 326 327 329 332 334 335 338 339 340 342 344 344 341 333 329 331 333 333 335 338 343 347 349 349 349 351 352 353 354 356 358 360 0 0 359 357
240 241 242 243 244 245 245 246 247 249 252 255 258 261 264 267 269 272 275 276 278 280 281 282 283 285 288 290 291 291 292 294 296 300 304 306 309 311 311 312 313 314 315 316 318 320 322 323 324 325 326 327 329 332 333 335 336 337 339 341 342 340 333 327 328 330 332 333 334 338 343 346 347 347 348 349 350 352 354 355 357 358 359 358 356
238 240 242 243 245 246 246 247 248 249 252 255 258 260 262 265 268 271 274 276 277 279 279 281 282 284 287 288 288 288 290 293 295 298 302 304 306 308 309 310 311 311 313 314 316 318 320 321 322 323 324 325 326 329 331 332 333 334 336 338 339 338 333 326 325 327 329 330 332 335 339 343 345 346 346 347 348 349 351 353 355 356 357 357 355
237 239 240 242 244 245 246 247 248 250 253 255 258 260 262 265 267 270 273 275 276 277 278 279 281 283 285 285 286 287 289 291 293 296 300 302 305 306 307 308 309 310 311 312 314 315 317 319 320 321 322 323 324 326 328 329 330 331 332 334 336 336 332 325 323 325 328 330 331 332 336 340 342 343 344 345 346 347 349 351 353 354 355 356 355
238 240 241 242 244 245 246 247 249 251 254 256 258 261 263 265 267 268 270 272 274 277 278 278 279 281 283 284 285 287 288 290 292 295 298 301 303 305 306 306 308 309 310 311 312 313 315 316 317 318 319 320 321 323 325 326 326 327 329 331 333 334 330 324 321 323 326 329 330 332 334 337 339 341 342 344 345 346 347 349 351 352 353 354 354
241 242 243 244 245 246 246 248 250 252 254 256 258 261 263 264 266 267 269 270 273 275 276 277 278 279 281 283 284 286 288 289 291 294 297 300 302 303 304 305 306 308 309 309 310 311 313 314 315 316 317 318 319 320 322 323 324 325 325 327 330 331 328 322 318 320 324 327 329 330 331 334 337 340 341 343 344 345 346 347 349 350 351 352 353
243 244 245 246 247 248 249 250 252 253 255 257 259 260 262 263 264 266 267 269 271 273 274 276 277 279 280 282 284 286 288 289 291 294 297 299 300 301 302 304 305 306 307 307 308 309 311 311 312 313 314 315 316 317 319 321 322 323 323 323 326 328 326 320 316 317 322 325 327 328 329 332 336 339 341 342 343 343 344 345 347 349 350 351 351
243 245 246 247 248 250 251 252 253 254 256 258 259 261 262 263 264 265 266 268 269 272 274 275 277 278 280 282 284 286 288 290 292 294 296 297 299 300 301 302 304 304 305 305 306 307 308 309 310 310 311 312 313 314 316 318 319 321 321 320 322 325 324 318 313 314 320 324 325 327 328 330 334 337 340 341 341 341 342 343 345 347 348 349 350
245 246 247 249 250 251 252 253 254 255 256 257 259 261 263 264 265 266 267 268 270 272 274 275 277 279 281 283 285 286 288 290 291 293 294 296 297 298 300 301 302 302 302 302 303 304 305 306 307 307 308 309 310 312 313 314 316 318 319 319 319 322 322 316 311 311 317 322 324 326 328 329 331 334 337 339 339 340 340 341 342 345 347 347 348
247 248 250 252 253 254 254 255 256 257 257 258 259 261 263 265 266 267 269 270 272 273 275 276 278 280 282 283 285 286 288 289 290 291 293 294 295 296 297 298 299 300 299 299 300 301 302 303 304 304 305 306 308 309 310 312 313 315 317 317 317 319 319 315 308 308 314 320 323 326 328 328 329 331 334 336 337 337 338 339 340 343 345 346 347
250 251 252 254 255 255 256 257 258 259 259 260 261 262 264 266 267 269 270 272 273 274 276 277 279 280 281 283 284 285 287 288 289 290 291 292 294 294 295 296 296 296 296 297 298 299 300 301 301 302 303 304 306 307 308 309 311 312 315 315 316 316 315 312 305 304 310 317 321 325 327 327 327 329 332 333 334 335 335 337 339 341 343 344 345
251 253 254 255 256 257 258 260 261 262 263 263 264 264 265 266 268 269 271 273 274 275 276 278 279 280 281 282 284 285 286 286 287 288 289 291 292 292 293 293 293 293 294 295 296 297 298 299 299 300 301 302 304 305 306 307 309 311 312 313 314 313 311 307 303 301 306 313 319 324 326 325 326 327 329 331 331 332 333 335 337 339 341 342 344
253 254 255 256 257 258 259 260 262 263 264 265 266 266 267 267 268 269 271 272 274 275 276 277 278 279 281 282 283 284 284 285 286 287 288 288 289 289 290 290 291 292 293 294 295 296 296 297 298 299 300 301 302 303 304 306 307 309 310 312 312 310 306 304 301 299 302 308 316 322 325 325 325 326 327 329 330 331 332 333 335 338 340 341 342
255 256 257 257 258 259 260 261 262 264 265 266 267 267 267 268 269 270 271 272 273 275 276 277 278 279 280 281 282 282 283 283 284 285 285 286 286 287 288 289 290 291 291 293 293 294 294 295 296 297 298 299 300 301 302 304 306 307 309 310 309 306 303 302 299 298 300 304 311 320 324 325 324 324 326 328 329 330 330 331 334 336 338 340 341
260 260 261 261 262 263 264 265 266 267 268 268 269 268 269 269 270 271 272 273 274 274 275 276 277 278 279 280 280 281 281 282 282 283 283 284 285 286 287 287 288 290 290 291 291 292 293 293 294 296 296 297 298 299 301 303 305 306 307 307 305 302 302 302 299 298 299 301 306 315 321 323 323 323 324 327 329 329 329 330 332 335 337 339 339
262 263 264 265 267 267 267 268 269 269 270 270 270 270 271 271 272 272 273 274 274 274 275 276 276 277 278 278 279 279 280 281 282 282 283 283 284 285 286 287 287 288 288 289 289 290 291 292 293 294 295 297 298 299 301 303 304 304 304 302 299 298 301 301 298 296 297 298 302 309 316 320 320 321 323 326 328 328 328 328 331 333 335 337 338
260 263 265 266 267 267 267 267 268 268 268 269 271 272 273 274 273 274 274 275 275 276 277 278 278 278 278 279 280 281 281 282 283 283 284 284 285 285 286 286 286 286 286 287 289 290 291 293 294 294 296 297 298 300 302 303 302 301 300 296 294 296 299 299 295 293 294 296 300 306 313 317 318 319 321 325 327 327 326 327 329 332 334 336 337
260 262 263 264 264 264 264 265 266 267 267 268 270 272 274 275 276 276 276 277 278 279 280 280 281 282 282 282 282 282 283 283 285 286 286 287 287 287 286 286 286 286 287 288 290 291 293 295 296 297 298 299 299 301 303 301 299 298 295 291 291 295 297 296 292 290 291 295 301 308 313 315 316 318 320 323 325 326 325 326 328 331 333 335 336
261 262 264 265 266 266 265 265 266 269 270 271 272 272 274 276 278 279 279 278 279 280 280 281 282 282 283 283 284 284 285 285 287 289 289 289 288 288 288 287 287 287 288 289 291 292 295 297 298 299 299 299 301 303 302 299 297 295 290 288 291 293 294 292 289 288 289 296 305 311 314 314 315 317 319 321 323 324 325 325 328 330 332 334 334
262 263 265 266 269 270 270 269 269 271 273 274 275 275 275 275 277 278 279 280 280 280 281 282 282 283 284 285 286 287 288 288 289 289 290 290 290 290 290 289 288 288 288 288 289 292 296 300 300 299 299 300 302 303 301 299 297 292 286 285 287 288 289 288 287 286 290 299 308 312 313 313 314 316 318 321 322 323 323 324 326 328 330 332 333
262 263 264 265 266 268 271 272 272 273 274 275 276 277 278 278 278 278 279 280 281 281 282 283 283 285 286 286 287 288 289 290 290 290 290 290 291 292 292 291 289 288 288 289 291 296 301 303 302 299 299 301 303 303 304 304 301 296 291 288 285 284 285 286 286 286 293 303 309 311 312 313 314 315 318 320 320 321 322 323 325 327 329 330 331
261 262 263 264 264 265 267 269 271 272 274 275 276 278 279 280 281 281 281 281 282 283 283 284 285 285 286 287 288 288 289 290 290 291 291 290 290 291 291 290 289 290 291 293 296 300 303 303 300 299 299 299 298 300 305 307 305 302 299 296 293 288 284 283 283 285 294 303 308 310 312 312 313 315 317 318 318 319 319 321 323 325 327 329 330
261 262 263 264 265 265 266 267 269 270 272 273 275 277 278 279 280 281 282 282 283 284 284 285 286 287 287 288 289 289 291 291 292 292 292 291 290 288 287 287 288 290 291 293 297 301 302 300 298 296 296 296 295 299 303 306 306 305 302 301 300 296 288 284 283 286 294 302 306 309 311 311 312 314 316 316 316 317 317 319 322 324 326 327 328
261 262 264 265 266 267 268 269 270 271 272 272 274 275 277 278 278 279 281 282 283 284 285 286 286 287 288 290 291 292 293 292 292 292 291 290 289 288 288 289 289 289 290 293 297 299 299 300 299 295 291 292 298 303 305 305 305 305 303 302 302 301 296 290 289 291 296 302 305 308 309 310 311 313 314 314 314 315 316 318 320 323 324 325 326
262 263 264 266 267 268 270 271 272 273 274 274 274 275 276 277 278 278 279 280 282 284 285 285 286 286 287 288 290 291 290 290 290 289 288 288 288 290 292 293 291 290 291 295 297 295 293 295 297 296 293 293 296 299 301 302 302 301 302 302 301 299 299 297 296 296 298 301 305 307 308 309 310 311 312 312 312 313 314 316 319 321 323 324 324
265 265 266 267 268 270 271 273 274 275 276 276 276 277 277 278 278 278 278 280 281 282 282 283 284 285 286 287 288 289 289 289 288 287 287 288 289 289 290 291 290 291 292 292 290 291 294 294 295 296 295 294 293 294 295 297 298 296 298 301 298 294 295 298 301 302 301 301 303 306 307 307 308 310 310 310 311 312 313 315 318 320 321 322 322
266 267 268 269 270 272 273 274 276 277 278 278 278 279 279 280 280 279 280 280 280 280 281 282 283 285 287 288 289 289 290 290 289 287 286 287 288 287 286 286 287 287 287 284 284 287 289 290 290 290 290 290 290 291 291 293 295 293 292 294 294 291 291 294 298 300 300 300 301 303 304 304 306 307 308 308 309 310 312 314 317 319 320 320 320
266 268 269 270 271 272 274 275 276 277 278 279 280 280 281 281 281 281 281 281 281 280 280 281 282 284 286 288 289 290 290 290 290 288 286 285 285 285 284 284 283 283 281 282 284 284 284 283 283 283 284 286 288 289 288 289 291 290 288 290 290 287 288 291 293 294 295 296 299 301 301 302 303 304 306 307 308 308 310 313 316 317 318 318 319
266 267 269 270 271 272 273 275 276 277 277 278 279 280 280 281 281 282 281 281 281 281 281 281 281 282 284 285 287 290 290 289 289 288 287 286 285 284 285 284 282 279 277 278 279 277 277 279 279 280 282 284 286 287 286 286 287 287 286 288 286 283 285 288 290 290 291 294 296 298 298 299 300 302 304 305 306 306 308 311 314 315 315 316 317
266 267 268 269 270 272 273 274 275 276 276 277 277 278 279 279 280 281 281 281 282 281 281 280 280 280 282 284 287 289 290 289 288 287 287 287 286 286 286 285 282 279 275 273 270 265 267 271 271 271 276 281 284 286 286 285 285 286 285 285 283 281 283 287 288 287 288 290 293 294 296 297 298 300 302 303 303 304 307 309 312 313 313 314 315
267 268 268 269 270 271 272 273 274 274 275 276 276 277 278 279 280 281 281 281 281 281 281 280 279 279 281 283 286 288 288 287 286 285 287 287 287 287 286 285 284 281 275 270 264 257 265 273 272 269 273 279 281 282 281 277 279 284 286 284 281 279 281 285 286 284 284 287 291 293 294 296 298 299 299 300 300 302 305 308 309 310 311 312 313
268 269 269 270 270 271 272 272 273 274 274 275 276 277 278 279 280 280 280 281 281 281 280 279 278 278 278 280 283 285 285 284 282 283 285 285 285 285 284 285 285 282 275 271 265 260 268 277 275 272 276 278 276 275 275 274 275 279 281 281 279 278 281 284 284 282 284 288 291 293 294 295 296 297 296 297 299 301 304 306 307 308 309 310 312
268 268 269 269 270 271 271 272 272 273 273 274 275 275 277 278 279 279 280 281 281 280 280 279 278 277 277 278 280 282 283 282 281 282 284 283 283 284 284 285 287 285 278 275 273 273 276 278 276 276 280 281 275 270 267 270 273 275 276 277 277 277 280 283 284 284 287 290 292 293 294 295 295 295 295 296 298 301 303 304 305 306 307 309 310
269 269 270 270 270 270 270 271 271 271 271 272 272 273 275 276 277 278 280 282 283 282 281 279 278 278 278 278 279 281 281 280 279 280 281 280 280 283 285 286 288 287 282 276 275 276 273 268 266 268 272 274 270 260 253 258 268 273 275 278 278 276 277 280 283 285 288 290 291 292 294 295 294 294 294 296 298 301 302 303 304 304 306 307 309
269 270 270 269 268 268 268 269 269 268 268 269 269 270 272 273 275 278 281 283 285 286 284 282 280 278 278 279 279 279 278 276 275 276 275 274 274 276 278 280 279 278 277 276 275 273 265 257 254 254 256 258 256 248 247 258 270 274 274 276 275 274 275 278 281 283 286 288 289 291 292 293 294 293 294 296 298 300 301 301 302 303 304 306 307
267 268 269 267 266 265 265 265 265 265 266 267 267 268 270 273 277 280 282 284 286 287 287 286 282 279 278 278 278 277 275 273 272 272 271 269 267 267 270 272 271 269 270 272 272 269 263 254 250 249 250 251 247 245 251 264 272 273 273 272 271 272 275 277 279 281 284 286 288 289 291 292 292 292 293 295 297 299 299 299 300 301 302 304 307
266 267 268 267 265 263 262 263 265 266 265 264 265 268 272 276 279 281 282 284 287 288 288 286 284 280 277 276 276 275 273 270 269 268 266 262 259 258 261 268 275 274 272 271 269 264 256 247 244 246 249 249 247 248 255 265 271 272 270 268 267 270 273 275 276 279 282 285 287 288 290 291 291 292 293 295 296 297 297 297 298 300 301 304 306
265 267 267 266 264 263 263 264 267 267 267 267 268 271 274 277 280 281 282 285 289 292 291 287 283 279 276 274 273 273 272 267 265 264 261 255 251 249 250 259 277 284 277 267 259 251 242 234 232 238 249 256 260 260 261 264 269 273 271 265 264 267 270 272 276 279 281 284 286 287 288 289 290 291 292 293 294 295 295 296 297 298 301 303 306
264 265 265 265 264 263 264 266 268 269 270 270 271 273 277 280 280 280 282 286 290 293 294 291 284 278 273 272 272 273 270 264 260 256 252 247 243 240 241 250 266 278 276 260 246 240 238 237 238 248 263 273 274 270 265 263 268 277 277 269 265 267 270 272 275 278 281 285 286 286 287 288 289 290 291 291 292 292 293 294 296 298 300 303 306
263 264 264 263 263 264 265 266 268 269 270 271 273 277 281 283 281 280 282 286 289 292 294 294 289 280 272 271 272 272 269 263 256 250 244 239 237 237 240 246 248 248 255 259 253 249 250 253 255 261 270 275 272 267 264 264 269 277 278 272 267 267 268 270 273 278 282 285 286 285 286 287 288 289 289 289 289 290 291 293 295 297 300 303 306
263 263 264 263 263 264 265 267 268 269 270 272 276 280 283 284 282 282 284 288 290 291 292 294 294 287 278 273 272 271 267 262 255 247 239 233 233 238 242 238 229 224 230 237 244 247 247 250 256 261 266 268 266 264 264 266 271 275 276 271 267 267 268 270 274 279 282 284 284 285 286 287 287 287 287 287 288 289 291 292 295 297 301 303 305
262 263 263 264 264 265 267 268 269 271 273 275 278 281 283 283 284 284 286 288 290 290 290 291 294 293 286 278 273 270 266 262 256 248 238 231 229 234 237 230 216 206 207 210 215 221 227 235 247 256 258 259 262 263 264 267 269 271 270 267 266 267 269 272 276 279 281 282 283 284 284 284 284 284 285 286 287 289 290 292 295 298 301 302 304
263 264 264 264 264 265 267 268 270 272 274 276 278 280 282 283 284 285 285 286 288 289 289 290 293 294 290 282 275 271 268 264 258 249 241 235 231 227 226 225 221 214 209 207 207 208 215 226 240 248 251 255 260 263 264 265 266 266 265 264 266 268 271 274 277 279 280 281 281 281 282 282 282 283 284 285 286 288 291 293 296 298 300 302 305
266 266 266 266 266 266 267 268 270 272 274 276 277 279 280 282 283 283 284 285 286 288 289 290 292 293 290 283 276 272 269 266 261 252 243 238 235 227 220 222 228 231 230 227 223 221 226 236 245 249 252 256 260 262 264 265 266 266 267 268 270 273 275 276 277 277 278 278 278 279 280 280 281 282 283 284 286 289 291 293 295 298 300 303 307
267 268 268 268 268 268 268 269 270 272 273 275 277 278 279 280 281 281 282 284 285 287 289 290 291 292 289 282 275 271 268 266 263 256 247 240 237 232 226 223 228 233 237 237 237 239 243 247 249 251 255 258 260 262 263 264 265 267 269 271 273 274 274 275 275 275 276 276 277 278 278 279 279 280 282 284 286 288 291 293 296 299 302 305 308
267 268 268 268 269 270 270 271 272 273 275 276 277 277 277 277 278 279 280 282 284 287 289 290 290 290 288 280 273 269 266 262 261 260 254 245 240 237 234 231 230 232 235 238 240 244 247 250 251 253 256 258 259 261 262 263 265 267 269 270 271 272 272 272 273 273 274 274 275 275 276 276 278 279 281 283 286 289 292 295 299 301 304 306 308
266 266 266 266 267 269 271 272 273 275 276 276 276 275 275 275 276 277 279 281 283 286 287 288 288 289 288 281 273 267 263 260 261 263 261 255 248 243 239 237 236 236 238 241 242 244 247 250 253 253 254 255 257 258 260 262 263 265 266 267 268 268 269 269 270 270 271 271 272 273 273 275 277 279 282 285 289 292 295 298 300 302 304 306 307
264 265 265 266 268 269 271 272 274 275 276 275 275 275 274 275 276 277 279 281 283 285 286 287 289 289 288 283 275 268 263 261 262 263 264 261 257 251 245 241 239 240 242 245 247 247 248 251 255 255 255 255 256 257 259 260 261 262 263 265 265 265 266 266 267 268 268 269 270 272 274 277 280 283 287 290 293 296 298 299 301 302 304 305 306
264 264 265 267 269 270 271 273 274 275 275 275 275 275 276 276 277 278 280 281 283 284 285 287 288 288 288 284 279 272 266 263 263 263 263 262 261 258 254 250 246 244 245 247 250 251 251 253 256 259 259 259 259 259 260 261 261 262 263 263 263 263 264 265 266 267 269 271 274 276 279 283 286 289 291 293 295 296 297 299 300 301 303 304 305
Height
10971 10972 10974 10975 10976 10976 10978 10978 10980 10980 10981 10982 10982 10983 10984 10984 10984 10984 10984 10983 10983 10983 10983 10983 10982 10982 10982 10982 10982 10982 10981 10980 10979 10978 10977 10977 10976 10975 10973 10972 10971 10970 10968 10966 10964 10962 10961 10959 10958 10956 10954 10952 10950 10948 10945 10943 10941 10938 10936 10933 10931 10928 10926 10923 10919 10916 10914 10912 10910 10909 10907 10904 10902 10900 10897 10894 10891 10888 10885 10881 10877 10874 10871 10868 10864
10968 10970 10971 10972 10973 10974 10975 10976 10977 10978 10978 10979 10980 10981 10981 10981 10982 10981 10981 10981 10980 10980 10980 10980 10980 10979 10979 10979 10979 10979 10978 10977 10976 10976 10975 10974 10973 10972 10970 10969 10968 10967 10966 10964 10962 10960 10958 10957 10955 10953 10951 10949 10948 10945 10943 10940 10938 10935 10932 10929 10926 10924 10922 10920 10917 10914 10911 10908 10906 10904 10902 10900 10898 10896 10893 10890 10888 10885 10881 10878 10874 10871 10867 10864 10860
10965 10967 10968 10969 10970 10972 10972 10973 10974 10975 10975 10976 10977 10978 10979 10979 10978 10978 10978 10978 10977 10977 10977 10977 10977 10976 10976 10976 10976 10976 10975 10974 10973 10973 10972 10971 10970 10969 10967 10966 10965 10963 10962 10961 10959 10957 10955 10954 10952 10949 10947 10946 10944 10942 10940 10937 10935 10932 10929 10926 10923 10920 10917 10915 10913 10910 10907 10905 10902 10900 10897 10895 10893 10890 10888 10886 10883 10880 10877 10873 10870 10866 10863 10859 10856
10961 10962 10963 10965 10967 10968 10968 10969 10971 10971 10972 10973 10974 10975 10975 10975 10975 10974 10974 10974 10974 10974 10974 10974 10974 10973 10973 10973 10973 10973 10972 10971 10970 10970 10969 10968 10966 10965 10964 10962 10961 10959 10958 10957 10955 10954 10952 10951 10948 10946 10944 10942 10940 10938 10936 10934 10931 10928 10925 10923 10920 10917 10914 10911 10909 10907 10904 10902 10899 10896 10893 10890 10888 10885 10883 10881 10879 10876 10872 10869 10865 10861 10858 10854 10850
10957 10958 10959 10961 10962 10963 10964 10965 10967 10968 10969 10970 10970 10971 10971 10971 10971 10971 10971 10970 10970 10971 10971 10970 10970 10970 10970 10970 10969 10969 10969 10968 10966 10966 10966 10965 10963 10962 10960 10959 10957 10956 10954 10953 10952 10951 10949 10947 10945 10943 10941 10938 10936 10934 10932 10930 10928 10925 10922 10919 10917 10914 10911 10908 10906 10904 10901 10899 10896 10893 10890 10886 10883 10881 10878 10875 10873 10871 10868 10865 10861 10857 10854 10850 10845
10953 10954 10955 10956 10957 10957 10959 10961 10962 10964 10965 10966 10966 10967 10967 10967 10968 10967 10967 10966 10966 10967 10967 10967 10967 10966 10966 10966 10965 10966 10966 10964 10963 10962 10962 10962 10960 10958 10957 10955 10954 10952 10950 10949 10948 10947 10946 10944 10942 10940 10938 10935 10933 10931 10929 10927 10924 10921 10919 10916 10913 10910 10907 10905 10903 10900 10898 10896 10893 10890 10887 10884 10881 10878 10875 10872 10869 10866 10864 10860 10856 10853 10849 10846 10841
10949 10950 10951 10952 10952 10953 10954 10956 10958 10960 10961 10961 10962 10962 10962 10963 10963 10963 10963 10962 10962 10963 10963 10963 10963 10962 10962 10962 10962 10962 10962 10961 10959 10959 10959 10958 10956 10954 10953 10952 10950 10948 10946 10945 10944 10943 10942 10940 10939 10937 10934 10932 10929 10927 10925 10923 10921 10918 10915 10912 10909 10907 10904 10901 10899 10896 10894 10892 10889 10886 10883 10881 10879 10875 10872 10869 10866 10862 10859 10856 10852 10848 10844 10840 10836
10944 10945 10946 10947 10947 10948 10950 10953 10954 10956 10956 10957 10957 10957 10958 10958 10958 10959 10958 10958 10958 10958 10958 10958 10958 10958 10958 10958 10958 10958 10958 10957 10956 10955 10955 10954 10952 10951 10949 10947 10946 10944 10942 10940 10939 10939 10938 10936 10934 10933 10931 10928 10925 10923 10921 10919 10917 10914 10911 10908 10905 10903 10900 10898 10895 10893 10890 10887 10885 10882 10880 10877 10875 10872 10869 10866 10863 10859 10855 10852 10847 10843 10839 10835 10830
10940 10941 10942 10942 10942 10944 10947 10949 10950 10951 10952 10952 10952 10953 10953 10953 10953 10954 10954 10953 10953 10953 10953 10954 10954 10954 10954 10954 10954 10954 10953 10953 10952 10951 10951 10949 10948 10947 10945 10943 10942 10940 10938 10936 10934 10934 10933 10931 10930 10928 10926 10924 10922 10919 10916 10914 10912 10910 10907 10904 10901 10899 10897 10894 10891 10888 10886 10883 10881 10879 10876 10873 10871 10869 10865 10862 10859 10855 10852 10848 10844 10839 10835 10831 10826
10935 10936 10936 10936 10937 10940 10943 10945 10946 10947 10947 10948 10948 10948 10948 10949 10949 10949 10949 10949 10949 10949 10949 10949 10949 10950 10950 10950 10950 10949 10948 10948 10947 10947 10946 10945 10943 10942 10940 10938 10937 10935 10933 10931 10929 10928 10928 10927 10925 10923 10921 10919 10917 10915 10912 10910 10908 10906 10903 10900 10897 10895 10893 10890 10887 10885 10882 10879 10877 10875 10872 10869 10867 10865 10862 10858 10855 10851 10847 10844 10840 10835 10831 10826 10822
10931 10931 10930 10931 10934 10936 10938 10939 10940 10941 10942 10943 10944 10944 10944 10944 10944 10944 10944 10945 10945 10945 10945 10945 10945 10945 10945 10945 10945 10944 10943 10942 10942 10942 10941 10940 10938 10937 10935 10933 10932 10930 10928 10926 10924 10922 10922 10921 10920 10918 10916 10914 10912 10910 10908 10906 10904 10902 10900 10896 10893 10891 10888 10886 10883 10880 10878 10876 10874 10872 10869 10865 10863 10860 10857 10854 10851 10847 10843 10839 10835 10830 10826 10821 10817
10926 10926 10926 10928 10930 10931 10932 10934 10935 10936 10937 10938 10939 10939 10940 10939 10939 10939 10939 10940 10941 10940 10940 10940 10940 10940 10940 10940 10940 10939 10938 10937 10936 10936 10936 10934 10933 10931 10929 10927 10926 10924 10922 10920 10919 10917 10916 10915 10914 10912 10910 10909 10907 10904 10903 10901 10899 10897 10895 10892 10889 10886 10884 10882 10879 10876 10873 10871 10869 10868 10865 10861 10858 10855 10852 10849 10846 10843 10839 10835 10830 10824 10820 10815 10811
10921 10922 10923 10924 10924 10925 10927 10928 10929 10930 10931 10932 10933 10934 10934 10933 10933 10933 10934 10935 10935 10935 10934 10935 10934 10934 10935 10935 10934 10934 10932 10931 10930 10930 10929 10928 10927 10925 10923 10921 10919 10917 10915 10914 10913 10911 10910 10909 10908 10906 10904 10903 10901 10899 10897 10895 10894 10892 10890 10888 10884 10881 10879 10877 10874 10872 10869 10867 10865 10863 10860 10857 10854 10850 10847 10845 10842 10839 10834 10830 10825 10819 10815 10810 10805
10916 10917 10918 10918 10919 10920 10922 10923 10923 10924 10925 10927 10928 10928 10928 10928 10927 10927 10928 10929 10929 10928 10929 10929 10928 10928 10929 10929 10929 10928 10926 10924 10923 10923 10923 10922 10921 10919 10917 10915 10912 10910 10908 10907 10906 10905 10903 10902 10901 10900 10898 10897 10895 10893 10891 10889 10888 10886 10885 10882 10879 10876 10873 10871 10869 10867 10865 10863 10860 10857 10854 10851 10848 10845 10842 10839 10837 10834 10829 10825 10820 10815 10809 10804 10799
10910 10911 10912 10912 10913 10915 10917 10917 10918 10918 10919 10920 10921 10921 10922 10921 10921 10922 10923 10923 10923 10922 10923 10922 10922 10922 10922 10923 10922 10922 10920 10918 10916 10916 10916 10915 10914 10913 10911 10908 10905 10903 10902 10901 10899 10898 10896 10895 10894 10893 10892 10890 10889 10888 10885 10883 10881 10880 10879 10877 10874 10870 10868 10865 10864 10862 10860 10858 10855 10852 10849 10846 10843 10840 10837 10834 10831 10828 10824 10819 10814 10810 10805 10799 10793
10904 10905 10905 10906 10907 10909 10910 10911 10912 10913 10913 10914 10915 10914 10914 10915 10915 10916 10917 10918 10917 10917 10916 10915 10916 10916 10916 10916 10915 10914 10913 10912 10910 10908 10908 10907 10907 10906 10904 10902 10899 10897 10895 10894 10892 10891 10889 10888 10887 10886 10885 10883 10882 10881 10880 10877 10874 10873 10872 10870 10868 10865 10862 10860 10858 10857 10855 10853 10850 10847 10844 10841 10838 10835 10832 10829 10826 10822 10818 10813 10808 10803 10799 10794 10788
10897 10898 10898 10899 10901 10903 10904 10905 10906 10906 10907 10907 10906 10905 10906 10907 10909 10910 10911 10911 10910 10910 10909 10908 10909 10909 10909 10908 10907 10906 10905 10904 10903 10901 10900 10899 10899 10899 10898 10896 10893 10890 10888 10886 10885 10883 10881 10880 10880 10879 10878 10876 10874 10874 10874 10871 10868 10866 10865 10864 10861 10859 10857 10854 10852 10851 10850 10847 10845 10842 10838 10835 10833 10830 10827 10824 10820 10816 10812 10808 10803 10797 10792 10788 10782
10890 10891 10891 10893 10894 10896 10897 10898 10899 10899 10898 10898 10896 10896 10898 10900 10901 10902 10903 10902 10902 10901 10901 10902 10902 10902 10901 10900 10899 10898 10897 10896 10895 10893 10892 10892 10892 10892 10891 10889 10887 10884 10880 10878 10877 10876 10875 10873 10872 10871 10871 10869 10867 10866 10867 10865 10861 10859 10858 10857 10855 10853 10852 10849 10847 10846 10845 10842 10839 10837 10834 10831 10828 10825 10822 10818 10815 10811 10807 10803 10798 10792 10787 10782 10777
10885 10885 10886 10887 10888 10888 10889 10891 10891 10891 10891 10890 10889 10890 10891 10892 10893 10895 10895 10895 10894 10894 10893 10893 10893 10893 10892 10892 10891 10891 10889 10888 10887 10885 10884 10884 10884 10884 10884 10882 10879 10876 10874 10872 10870 10869 10869 10867 10865 10864 10864 10863 10860 10859 10859 10858 10855 10852 10850 10850 10849 10847 10846 10845 10842 10840 10839 10837 10835 10832 10829 10826 10823 10820 10817 10813 10810 10806 10802 10798 10794 10788 10782 10777 10772
10879 10880 10880 10880 10880 10881 10883 10884 10884 10884 10884 10884 10885 10885 10885 10884 10886 10887 10887 10887 10887 10887 10886 10886 10885 10885 10884 10883 10883 10883 10882 10881 10880 10877 10876 10876 10875 10876 10876 10875 10871 10869 10868 10867 10864 10863 10863 10862 10858 10856 10856 10856 10853 10852 10852 10850 10848 10846 10844 10844 10843 10841 10840 10839 10837 10834 10833 10832 10829 10827 10824 10821 10818 10815 10812 10809 10805 10802 10798 10793 10788 10783 10777 10772 10767
10873 10873 10874 10874 10874 10874 10876 10878 10878 10877 10877 10877 10878 10879 10879 10879 10879 10879 10879 10880 10881 10880 10879 10879 10879 10878 10876 10875 10875 10875 10874 10875 10874 10871 10868 10867 10866 10866 10867 10866 10864 10862 10861 10861 10859 10857 10857 10856 10853 10850 10848 10848 10847 10846 10845 10843 10841 10840 10840 10838 10837 10835 10834 10834 10831 10828 10827 10826 10824 10822 10819 10816 10814 10811 10807 10803 10800 10796 10792 10788 10782 10777 10772 10767 10762
10866 10867 10868 10868 10868 10868 10869 10871 10872 10872 10871 10871 10871 10872 10872 10873 10873 10873 10872 10873 10874 10873 10873 10873 10872 10871 10870 10869 10868 10867 10866 10867 10867 10865 10861 10859 10857 10857 10857 10857 10856 10854 10854 10854 10853 10853 10852 10851 10847 10844 10842 10841 10841 10840 10839 10837 10837 10836 10835 10833 10831 10829 10828 10828 10825 10822 10821 10820 10818 10816 10814 10811 10809 10805 10801 10798 10794 10790 10786 10782 10777 10772 10767 10762 10757
10860 10861 10861 10862 10862 10863 10863 10864 10864 10865 10865 10865 10865 10865 10866 10866 10866 10866 10866 10866 10866 10866 10866 10866 10865 10864 10863 10862 10861 10860 10860 10859 10859 10857 10854 10853 10851 10849 10849 10849 10847 10846 10846 10847 10848 10848 10848 10845 10841 10838 10836 10836 10836 10835 10833 10833 10832 10831 10830 10828 10826 10824 10823 10822 10820 10817 10816 10815 10812 10811 10808 10805 10802 10799 10795 10792 10788 10784 10780 10777 10772 10767 10763 10758 10753
10854 10854 10855 10856 10856 10857 10858 10858 10858 10858 10858 10858 10858 10859 10859 10860 10859 10859 10859 10859 10859 10859 10858 10858 10859 10858 10857 10856 10855 10854 10854 10853 10852 10850 10848 10846 10846 10844 10842 10840 10838 10838 10839 10840 10841 10842 10841 10839 10836 10832 10831 10831 10830 10830 10829 10828 10827 10826 10825 10824 10822 10820 10818 10817 10815 10813 10811 10810 10807 10805 10803 10799 10796 10793 10790 10786 10783 10779 10775 10772 10768 10763 10758 10753 10748
10847 10848 10848 10849 10850 10851 10852 10852 10852 10852 10852 10852 10852 10852 10853 10854 10853 10852 10851 10852 10852 10852 10851 10851 10851 10850 10850 10849 10848 10848 10848 10847 10846 10844 10840 10838 10838 10837 10835 10833 10832 10832 10832 10833 10834 10835 10834 10832 10830 10828 10828 10827 10826 10825 10824 10823 10821 10820 10819 10818 10817 10815 10814 10812 10810 10808 10807 10805 10802 10800 10797 10794 10790 10788 10785 10781 10778 10774 10771 10768 10764 10759 10754 10749 10744
10840 10841 10841 10842 10843 10843 10844 10845 10845 10845 10846 10846 10846 10846 10846 10847 10846 10845 10844 10844 10844 10845 10844 10844 10843 10842 10842 10842 10841 10841 10841 10839 10838 10836 10833 10830 10829 10828 10827 10827 10826 10825 10825 10826 10827 10828 10827 10826 10825 10824 10824 10824 10824 10822 10821 10819 10817 10815 10814 10812 10810 10809 10808 10806 10804 10803 10801 10799 10796 10795 10792 10789 10785 10783 10780 10777 10773 10770 10766 10763 10759 10755 10750 10745 10740
10833 10834 10835 10835 10836 10836 10837 10837 10837 10838 10838 10839 10839 10839 10839 10839 10839 10838 10837 10836 10836 10837 10836 10835 10835 10835 10835 10835 10835 10835 10835 10833 10831 10829 10828 10825 10824 10822 10821 10820 10818 10817 10818 10819 10819 10820 10820 10820 10820 10820 10820 10820 10819 10818 10816 10815 10813 10811 10809 10807 10805 10803 10802 10800 10799 10797 10795 10793 10791 10789 10787 10784 10781 10778 10775 10772 10769 10765 10762 10759 10755 10750 10745 10740 10735
10827 10827 10828 10829 10829 10829 10830 10829 10829 10830 10830 10830 10831 10831 10831 10831 10831 10830 10830 10829 10829 10829 10827 10826 10826 10826 10827 10828 10828 10827 10827 10826 10824 10823 10823 10821 10819 10817 10815 10813 10810 10809 10811 10812 10813 10813 10813 10812 10811 10812 10812 10811 10811 10810 10809 10808 10808 10807 10804 10801 10800 10798 10797 10795 10793 10791 10789 10787 10785 10783 10781 10778 10776 10773 10770 10767 10764 10761 10757 10754 10750 10745 10740 10735 10730
10820 10820 10821 10822 10822 10822 10822 10822 10822 10822 10821 10821 10822 10823 10823 10822 10822 10821 10822 10822 10822 10820 10819 10819 10818 10818 10819 10820 10820 10820 10820 10818 10815 10816 10817 10815 10811 10809 10808 10806 10804 10803 10803 10803 10804 10805 10806 10804 10803 10803 10801 10801 10801 10802 10801 10800 10800 10800 10798 10796 10794 10792 10790 10789 10787 10786 10784 10782 10780 10778 10775 10773 10771 10769 10766 10762 10759 10756 10753 10749 10745 10740 10736 10731 10726
10814 10814 10814 10815 10815 10815 10815 10815 10815 10814 10813 10813 10813 10814 10814 10814 10813 10813 10814 10814 10813 10812 10811 10811 10811 10811 10811 10812 10812 10812 10813 10810 10807 10806 10807 10806 10803 10800 10799 10798 10796 10795 10793 10792 10793 10796 10796 10794 10793 10791 10789 10790 10791 10792 10792 10792 10791 10791 10790 10789 10788 10785 10783 10782 10781 10780 10778 10776 10774 10772 10770 10768 10766 10763 10760 10757 10754 10751 10748 10744 10740 10736 10731 10726 10721
10807 10808 10808 10808 10808 10808 10808 10808 10807 10807 10806 10806 10806 10806 10806 10805 10805 10806 10806 10805 10804 10803 10803 10803 10803 10804 10804 10805 10805 10805 10804 10802 10799 10797 10795 10795 10794 10791 10790 10788 10787 10785 10783 10783 10786 10789 10789 10786 10783 10779 10776 10777 10780 10783 10783 10783 10783 10782 10781 10782 10782 10779 10777 10777 10776 10774 10772 10770 10768 10766 10764 10762 10760 10758 10755 10752 10749 10746 10743 10739 10736 10731 10727 10721 10717
10799 10800 10800 10801 10801 10800 10800 10800 10799 10799 10798 10798 10798 10798 10798 10797 10798 10797 10797 10796 10796 10795 10796 10796 10796 10795 10796 10796 10797 10797 10796 10793 10790 10788 10785 10783 10783 10782 10781 10779 10777 10776 10775 10775 10779 10783 10782 10778 10775 10772 10769 10769 10770 10773 10775 10776 10776 10776 10775 10775 10775 10773 10772 10771 10769 10767 10765 10763 10762 10760 10759 10757 10755 10752 10749 10747 10743 10740 10737 10734 10730 10726 10721 10716 10712
10790 10791 10791 10792 10792 10792 10792 10791 10791 10790 10789 10789 10789 10789 10789 10790 10790 10789 10788 10787 10787 10787 10787 10788 10787 10787 10786 10787 10788 10789 10788 10785 10782 10780 10778 10775 10774 10774 10773 10771 10770 10771 10769 10767 10769 10772 10771 10766 10761 10762 10765 10765 10764 10764 10767 10769 10770 10770 10770 10769 10768 10767 10765 10764 10762 10759 10758 10757 10756 10754 10752 10751 10749 10747 10744 10741 10737 10734 10732 10729 10725 10721 10716 10711 10706
10781 10781 10782 10782 10782 10783 10782 10782 10782 10781 10781 10780 10780 10780 10780 10780 10780 10780 10779 10777 10777 10778 10778 10778 10778 10777 10778 10778 10779 10780 10779 10777 10775 10773 10771 10769 10768 10767 10766 10764 10764 10764 10761 10758 10759 10762 10762 10759 10756 10757 10762 10763 10761 10759 10761 10762 10763 10764 10764 10763 10761 10760 10758 10756 10753 10751 10750 10750 10749 10748 10747 10745 10744 10741 10738 10735 10731 10729 10727 10724 10719 10715 10711 10706 10701
10770 10771 10772 10772 10772 10772 10772 10772 10772 10772 10772 10771 10771 10771 10771 10771 10770 10770 10770 10769 10769 10769 10769 10769 10768 10768 10768 10770 10770 10771 10770 10769 10768 10766 10765 10763 10762 10761 10761 10759 10757 10755 10753 10751 10752 10754 10755 10755 10755 10757 10760 10760 10758 10758 10758 10757 10756 10757 10758 10756 10754 10753 10752 10749 10746 10744 10744 10744 10743 10742 10741 10740 10738 10735 10732 10729 10726 10724 10722 10718 10714 10709 10705 10700 10695
10759 10760 10761 10762 10762 10762 10762 10762 10762 10762 10762 10761 10761 10761 10762 10762 10761 10761 10761 10761 10761 10761 10760 10759 10758 10758 10759 10760 10761 10762 10762 10761 10760 10760 10759 10758 10756 10756 10755 10752 10749 10747 10745 10744 10745 10748 10749 10750 10754 10757 10757 10757 10757 10758 10757 10753 10751 10751 10751 10750 10748 10746 10744 10742 10740 10739 10739 10739 10738 10737 10736 10735 10732 10729 10726 10723 10720 10718 10716 10713 10708 10703 10699 10694 10689
10748 10748 10749 10751 10752 10752 10751 10751 10751 10751 10751 10751 10751 10752 10753 10753 10753 10753 10753 10754 10754 10753 10752 10750 10749 10749 10750 10752 10753 10754 10754 10754 10754 10753 10753 10752 10751 10750 10748 10746 10744 10742 10740 10738 10738 10740 10742 10744 10749 10754 10755 10755 10756 10756 10752 10749 10747 10746 10744 10743 10741 10740 10737 10735 10734 10734 10735 10734 10733 10732 10731 10729 10726 10722 10719 10716 10714 10712 10710 10707 10702 10697 10693 10688 10683
10739 10738 10739 10740 10741 10741 10741 10741 10741 10741 10741 10742 10743 10743 10744 10744 10744 10745 10746 10746 10746 10745 10744 10742 10741 10740 10741 10743 10745 10746 10747 10747 10746 10745 10745 10746 10745 10743 10741 10740 10740 10738 10736 10734 10733 10734 10735 10738 10742 10747 10749 10750 10751 10750 10746 10743 10740 10738 10737 10736 10736 10734 10731 10729 10727 10728 10728 10728 10727 10726 10725 10722 10719 10716 10713 10710 10707 10706 10703 10700 10695 10690 10686 10681 10677
10730 10730 10730 10731 10731 10731 10732 10732 10732 10733 10733 10734 10735 10736 10736 10736 10736 10737 10738 10738 10738 10737 10735 10734 10732 10731 10732 10734 10736 10737 10739 10739 10738 10736 10736 10738 10739 10737 10735 10734 10734 10732 10730 10728 10728 10728 10729 10732 10737 10740 10742 10743 10743 10743 10740 10735 10731 10729 10729 10729 10729 10727 10725 10722 10721 10721 10722 10722 10721 10720 10718 10715 10712 10709 10706 10703 10701 10699 10697 10693 10688 10684 10679 10674 10670
10721 10721 10721 10722 10722 10723 10723 10724 10724 10725 10726 10727 10727 10727 10727 10727 10728 10729 10729 10730 10729 10728 10726 10723 10722 10722 10723 10725 10726 10728 10730 10731 10730 10728 10728 10730 10732 10731 10729 10729 10728 10726 10723 10722 10724 10724 10725 10728 10733 10736 10737 10738 10739 10737 10732 10727 10724 10724 10723 10722 10720 10719 10718 10716 10715 10715 10716 10715 10715 10713 10711 10708 10705 10702 10699 10697 10694 10692 10689 10686 10681 10677 10673 10668 10663
10711 10711 10712 10712 10713 10714 10715 10716 10716 10717 10717 10718 10718 10718 10719 10718 10718 10719 10721 10721 10721 10720 10717 10714 10712 10712 10714 10716 10717 10719 10721 10722 10722 10721 10721 10721 10723 10723 10722 10720 10720 10718 10716 10717 10721 10723 10725 10728 10731 10731 10731 10731 10731 10727 10723 10719 10718 10717 10716 10715 10713 10712 10711 10710 10710 10710 10710 10710 10708 10706 10703 10700 10698 10695 10693 10690 10688 10685 10682 10679 10674 10670 10666 10661 10656
10701 10702 10702 10703 10703 10705 10706 10707 10707 10708 10708 10708 10708 10709 10709 10709 10709 10711 10712 10713 10713 10713 10711 10708 10705 10704 10706 10708 10709 10710 10711 10712 10712 10712 10713 10713 10714 10715 10714 10712 10709 10709 10710 10713 10718 10722 10726 10727 10726 10724 10722 10721 10720 10718 10714 10712 10711 10710 10709 10708 10706 10705 10705 10705 10705 10705 10704 10703 10701 10698 10695 10693 10690 10688 10685 10682 10680 10678 10675 10671 10667 10663 10659 10654 10649
10692 10692 10692 10693 10694 10695 10696 10697 10698 10698 10698 10699 10699 10700 10700 10700 10701 10702 10703 10703 10704 10704 10703 10701 10699 10698 10698 10700 10701 10701 10701 10702 10703 10704 10704 10705 10706 10707 10707 10706 10702 10701 10703 10709 10714 10719 10723 10722 10718 10714 10712 10710 10709 10707 10706 10705 10704 10702 10702 10701 10700 10700 10699 10699 10699 10698 10697 10695 10693 10690 10688 10685 10682 10680 10677 10675 10673 10671 10668 10664 10660 10656 10651 10647 10642
10682 10682 10683 10683 10684 10686 10687 10688 10688 10689 10689 10689 10690 10690 10690 10691 10692 10692 10693 10693 10694 10694 10694 10694 10693 10692 10692 10692 10692 10692 10692 10693 10694 10695 10695 10697 10698 10698 10699 10699 10697 10694 10696 10701 10706 10710 10712 10710 10707 10704 10702 10700 10698 10698 10698 10697 10697 10696 10695 10695 10694 10694 10693 10692 10692 10691 10689 10687 10684 10682 10680 10677 10674 10672 10669 10667 10665 10663 10660 10656 10652 10648 10643 10639 10636
10672 10672 10673 10674 10675 10676 10677 10678 10679 10679 10679 10680 10680 10681 10681 10681 10681 10682 10683 10683 10684 10684 10685 10686 10686 10686 10685 10685 10685 10685 10684 10684 10685 10686 10686 10687 10688 10690 10690 10690 10689 10689 10690 10692 10694 10695 10695 10695 10695 10694 10693 10692 10690 10690 10690 10690 10690 10690 10689 10688 10687 10686 10685 10684 10683 10682 10680 10678 10675 10673 10671 10669 10666 10664 10662 10659 10657 10655 10651 10647 10643 10639 10635 10632 10628
10661 10662 10663 10664 10666 10667 10668 10669 10670 10670 10670 10670 10670 10671 10671 10670 10671 10672 10672 10673 10673 10674 10675 10677 10678 10678 10678 10678 10677 10677 10676 10674 10675 10677 10678 10678 10679 10681 10682 10681 10680 10681 10682 10683 10682 10681 10682 10683 10684 10684 10683 10683 10682 10682 10682 10682 10682 10681 10679 10678 10677 10677 10676 10675 10674 10672 10671 10668 10666 10664 10663 10661 10658 10656 10654 10652 10649 10646 10642 10638 10634 10630 10627 10624 10620
10651 10653 10654 10654 10655 10656 10658 10659 10660 10661 10661 10661 10661 10661 10661 10660 10661 10661 10662 10662 10663 10664 10665 10668 10669 10670 10670 10670 10670 10669 10668 10666 10665 10667 10669 10669 10670 10671 10673 10672 10671 10671 10671 10672 10672 10672 10672 10672 10673 10673 10674 10674 10674 10673 10673 10672 10671 10670 10669 10668 10667 10667 10666 10665 10664 10663 10661 10659 10658 10656 10655 10653 10650 10648 10646 10643 10640 10637 10633 10629 10625 10622 10619 10615 10612
10641 10643 10645 10645 10645 10645 10646 10647 10648 10650 10651 10652 10652 10652 10652 10651 10651 10651 10652 10652 10653 10654 10655 10657 10659 10660 10660 10661 10662 10661 10660 10659 10658 10657 10659 10660 10661 10662 10663 10664 10663 10663 10662 10662 10662 10663 10663 10664 10664 10665 10665 10665 10664 10663 10663 10662 10661 10660 10659 10658 10658 10657 10656 10655 10654 10653 10652 10650 10649 10648 10646 10644 10642 10639 10636 10633 10630 10627 10623 10620 10616 10613 10610 10607 10604
10631 10633 10635 10636 10636 10635 10636 10636 10637 10638 10640 10641 10642 10642 10642 10642 10641 10641 10642 10643 10644 10645 10645 10646 10648 10649 10650 10651 10652 10652 10652 10651 10650 10649 10649 10650 10651 10651 10652 10653 10654 10654 10653 10653 10653 10653 10654 10655 10655 10656 10655 10654 10653 10653 10652 10652 10651 10650 10649 10648 10648 10647 10646 10645 10645 10644 10643 10641 10640 10638 10636 10634 10632 10629 10626 10623 10620 10617 10614 10610 10607 10604 10601 10598 10596
10621 10622 10624 10625 10625 10625 10625 10626 10626 10627 10629 10631 10632 10632 10632 10632 10631 10632 10633 10634 10634 10634 10635 10635 10637 10639 10640 10640 10641 10642 10642 10642 10642 10641 10640 10639 10640 10640 10641 10642 10643 10642 10642 10641 10641 10641 10642 10642 10643 10643 10643 10643 10643 10642 10642 10641 10640 10639 10638 10637 10636 10635 10635 10635 10635 10634 10633 10632 10630 10628 10626 10624 10621 10618 10615 10612 10609 10606 10604 10601 10598 10596 10593 10590 10587
10610 10611 10613 10614 10614 10614 10614 10614 10615 10616 10617 10619 10620 10621 10621 10620 10620 10620 10622 10623 10623 10623 10624 10624 10626 10628 10630 10630 10631 10632 10633 10633 10633 10632 10631 10630 10630 10630 10629 10630 10631 10631 10630 10629 10628 10628 10629 10629 10629 10630 10630 10630 10630 10630 10630 10629 10628 10627 10627 10626 10625 10625 10625 10626 10625 10624 10623 10622 10619 10616 10614 10612 10609 10606 10603 10600 10598 10596 10594 10592 10590 10587 10585 10582 10579